Green Bay, WI

9:25 AM CDT on April 19, 2018 (GMT -0500)
Austin Straubel International

Weather History for KGRB - August, 2013

Change the Weather History Date:

Thursday, August 22, 2013

  Actual Average Record
Temperature  
Mean Temperature 68 °F 67 °F  
Max Temperature 79 °F 77 °F 95 °F (1947)
Min Temperature 57 °F 56 °F 38 °F (1950)
Degree Days  
Heating Degree Days 0 1  
Month to date heating degree days 18 22  
Since 1 June heating degree days 112 137  
Since 1 July heating degree days 40 45  
Cooling Degree Days 3 3  
Month to date cooling degree days 54 84  
Year to date cooling degree days 395 335  
Since 1 June cooling degree days 357 317  
Growing Degree Days 20 (Base 50)    
Moisture  
Dew Point 61 °F    
Average Humidity 72    
Maximum Humidity 100    
Minimum Humidity 43    
Precipitation  
Precipitation 0.00 in 0.10 in 2.38 in (1910)
Month to date precipitation 2.37 2.46  
Year to date precipitation 23.31 19.49  
Snow  
Snow 0.00 in 0.00 in 0.00 in ()
Month to date snowfall 0.0 0.0  
Since 1 June snowfall 0.0 0.0  
Since 1 July snowfall 0.0 0.0  
Snow Depth 0.00 in    
Sea Level Pressure  
Sea Level Pressure 30.05 in    
Wind  
Wind Speed 4 mph (NNW)    
Max Wind Speed 13 mph    
Max Gust Speed 16 mph    
Visibility 6 miles    
Events Fog    
T = Trace of Precipitation, MM = Missing Value Source: NWS Daily Summary

Daily Weather History Graph

Daily Weather History Graph

Search for Another Location

Airport or City:

Astronomy

Aug. 22, 2013 Rise Set
Actual Time 6:03 AM CDT 7:45 PM CDT
Civil Twilight 5:32 AM CDT 8:16 PM CDT
Nautical Twilight 4:55 AM CDT 8:54 PM CDT
Astronomical Twilight 4:14 AM CDT 9:34 PM CDT
Moon 8:21 PM CDT (8/22) 7:58 AM CDT (8/22)
Length of Visible Light 14h 43m
Length of Day
13h 42m
Waning Gibbous, 96% of the Moon is Illuminated
Aug 22
Waning Gibbous
Aug 28
Last Quarter
Sep 5
New
Sep 12
First Quarter
Sep 19
Full

Hourly Weather History & Observations

Time (CDT) Temp. Dew Point Humidity Pressure Visibility Wind Dir Wind Speed Gust Speed Precip Events Conditions
12:53 AM 66.0 °F 64.9 °F 96% 29.99 in 7.0 mi West 6.9 mph - N/A   Clear
1:53 AM 66.0 °F 64.9 °F 96% 30.00 in 7.0 mi WSW 3.5 mph - N/A   Clear
2:36 AM 64.0 °F 63.0 °F 96% 30.02 in 1.8 mi Calm Calm - N/A   Clear
2:50 AM 64.4 °F 64.4 °F 100% 30.02 in 3.0 mi Calm Calm - N/A   Clear
2:53 AM 64.0 °F 64.0 °F 100% 30.01 in 3.0 mi Calm Calm - N/A   Clear
3:03 AM 64.0 °F 64.0 °F 100% 30.02 in 1.8 mi West 3.5 mph - N/A   Clear
3:22 AM 63.0 °F 63.0 °F 100% 30.02 in 0.8 mi WNW 3.5 mph - N/A   Clear
3:30 AM 64.0 °F 64.0 °F 100% 30.03 in 2.0 mi Calm Calm - N/A   Clear
3:48 AM 62.6 °F 62.6 °F 100% 30.02 in 1.0 mi NW 3.5 mph - N/A   Clear
3:53 AM 63.0 °F 63.0 °F 100% 30.01 in 1.2 mi NW 3.5 mph - N/A   Clear
4:06 AM 63.0 °F 62.1 °F 97% 30.02 in 0.5 mi West 3.5 mph - N/A Fog Fog
4:11 AM 63.0 °F 63.0 °F 100% 30.01 in 1.8 mi West 3.5 mph - N/A   Partly Cloudy
4:14 AM 63.0 °F 63.0 °F 100% 30.01 in 3.0 mi Calm Calm - N/A   Partly Cloudy
4:21 AM 63.0 °F 62.1 °F 97% 30.02 in 2.0 mi West 3.5 mph - N/A   Partly Cloudy
4:50 AM 64.4 °F 62.6 °F 94% 30.02 in 3.0 mi Calm Calm - N/A   Clear
4:53 AM 64.0 °F 63.0 °F 96% 30.01 in 3.0 mi Calm Calm - N/A   Clear
5:00 AM 63.0 °F 63.0 °F 100% 30.02 in 1.8 mi Calm Calm - N/A   Clear
5:53 AM 62.1 °F 62.1 °F 100% 30.02 in 1.5 mi Calm Calm - N/A   Clear
6:00 AM 62.1 °F 62.1 °F 100% 30.02 in 0.2 mi SSE 3.5 mph - N/A Fog Fog
6:27 AM 62.1 °F 62.1 °F 100% 30.03 in 1.0 mi South 3.5 mph - N/A   Mist
6:30 AM 63.0 °F 62.1 °F 97% 30.04 in 2.0 mi Calm Calm - N/A   Partly Cloudy
6:53 AM 63.0 °F 63.0 °F 100% 30.03 in 3.0 mi Calm Calm - N/A Fog Shallow Fog
7:53 AM 66.0 °F 64.0 °F 93% 30.05 in 3.0 mi NNW 5.8 mph - N/A Fog Shallow Fog
8:53 AM 68.0 °F 64.0 °F 87% 30.06 in 10.0 mi North 6.9 mph - N/A Fog Shallow Fog
9:53 AM 69.1 °F 64.9 °F 87% 30.08 in 10.0 mi North 5.8 mph - N/A   Clear
10:53 AM 70.0 °F 64.9 °F 84% 30.09 in 10.0 mi NE 6.9 mph - N/A   Clear
11:53 AM 73.0 °F 63.0 °F 71% 30.09 in 10.0 mi NNE 9.2 mph - N/A   Clear
12:53 PM 73.9 °F 61.0 °F 64% 30.09 in 10.0 mi NE 6.9 mph - N/A   Clear
1:53 PM 75.0 °F 55.9 °F 51% 30.10 in 10.0 mi ENE 5.8 mph - N/A   Clear
2:53 PM 77.0 °F 54.0 °F 45% 30.09 in 10.0 mi ENE 8.1 mph - N/A   Clear
3:53 PM 79.0 °F 55.9 °F 45% 30.07 in 10.0 mi North 8.1 mph - N/A   Clear
4:53 PM 79.0 °F 57.9 °F 48% 30.07 in 10.0 mi North 10.4 mph - N/A   Clear
5:53 PM 77.0 °F 57.9 °F 52% 30.07 in 10.0 mi NE 9.2 mph - N/A   Clear
6:53 PM 73.9 °F 57.9 °F 57% 30.09 in 10.0 mi Calm Calm - N/A   Clear
7:53 PM 69.1 °F 55.0 °F 61% 30.10 in 10.0 mi South 4.6 mph - N/A   Clear
8:53 PM 64.9 °F 60.1 °F 84% 30.11 in 10.0 mi Calm Calm - N/A   Clear
9:53 PM 63.0 °F 57.9 °F 84% 30.13 in 10.0 mi Calm Calm - N/A   Clear
10:53 PM 60.1 °F 57.0 °F 90% 30.14 in 10.0 mi NE 3.5 mph - N/A   Clear
11:53 PM 59.0 °F 57.0 °F 93% 30.15 in 10.0 mi Calm Calm - N/A   Clear